Sherman Airfield (FLV)
Ft Leavenworth, KS
Field Elevation: 772
Lat: 39°22.10N  Long: 94°54.89W
CTAF/Unicom Freq: 126.2000
   
    
Weather Advisories
3/29/2015 00:57 Z
Altimeter 30.10" Hg
Wind 130° @ 7 KT
Gusts --
Visibility 10 SM
Temperature 9° C (48° F)
Dewpoint -1° C (30° F)
Relative Humidity 49%
Density Altitude --
Condensation Altitude 6,000 feet
Wind Chill 7° C (45° F)
  Wind and Runways
Indicated Runway = 16
History
 
 
More Info
All DigiWx sites map
Weather Radar
NOAA Forecast
 
Airport IQ 5010
(K68) Garnett Municipal
(GRE) Greenville
 
about DigiWx
 
FAA Disclaimer: The data displayed is for advisory purposes only and is not to be used for flight planning or operations. For official data, please call (not available) to hear the current automated AWOS voice message.
  METAR FLV 290057Z AUTO 13007KT 10SM 09/M01 A3010